loading
DOY 175 | 2024-06-23T12:09:30Z

STARLINK-31853, 59933

Orbit data source: Space-Track

STARLINK-31853, 59933 is a payload satellite owned by SpaceX/Seattle (US) in LEO that was launched on Sat, 01 Jun 2024 UTC via a Falcon 9 launch vehicle from the Air Force Eastern Test Range (AFETR). Payloads include a variety of satellites, spacecraft, and rockets equipped with specific instruments for various scientific and technological missions. These include communications satellites like Starlink; space stations such as the ISS; scientific satellites like the Hubble; Earth observation satellites from companies like Planet Labs, Umbra, and HawkEye 360; GPS; miniature CubeSats for education and research; and military/defense satellites.

Loading next visibility...
Loading greatness...
STARLINK-31853 details
NORAD ID59933
COSPAR ID
2024-106M
Orbit
LEO
Last TLE update14 hours ago
Origin
Flag of USSpaceX/Seattle (US)
ManufacturerSpaceX/Seattle
BusStarlink V2M
MotorUnknown
Mass750 kg wet, ~700 kg dry
Launch date (UTC)
2024-06-01 (3 weeks ago)
Launch vehicle
Falcon 9
Launch site
Air Force Eastern Test Range (AFETR)
Object type
Payload
Rocket body
Debris
Radar Cross SectionLarge (>1 m²)
Predictive object data (real-time)
Latitude-40.20169°
Longitude-68.37678°
Altitude392.058 km
Speed7.676 km/s
Apparent Right ascension11h 25m 26s
Apparent Declination-39° 53' 41"
Sunlit
Object is in daylight
Predictive observer data (real-time)
Local Sidereal Time23:17:39
Azimuth270.196° WNW
Elevation-88.508°
Doppler factor1
Orbital elements
Apogee377.471 km
Perigee375.707 km
Semi-major axis6,754.726 km
Eccentricity0.0001306
Inclination42.9999°
RAAN292.4007°
Arg. of periapsis283.8416°
True anomaly242.45183°
Mean anomaly242.4651°
Mean motion3.90959 °/min
BSTAR-0.019702
Period92.08 mins
Definitive object data (Epoch: 2024-06-22T22:00:00.999Z)
Latitude9.29846°
Longitude-139.23165°
Altitude374.062 km
Speed7.688 km/s
True Right ascension06h 49m 22s
True Declination9° 14' 26"
Sunlit
Object was in daylight at TLE epoch
TLE from 14 hours ago
0 STARLINK-31853
1 59933U 24106M   24174.91667824 -.01747094  00000-0 -19702-1 0  9997
2 59933  42.9999 292.4007 0001306 283.8416 242.4651 15.64522303  4615
Epoch: 2024-06-22T22:00Z
No data available

STARLINK-31853 Visibility forecast

Observer location: 39.9160978°, -105.1181434, 0m alt.

STARLINK-31853 is not visible in the next 10 days
Span
Click to sort rows by Start time (UTC) header in descending order
Start Az.
Max El. time (UTC)
Max El. Az.
Max El.
End time (UTC)
End Az.